Time,TemperatureF,DewpointF,PressureIn,WindDirection,WindDirectionDegrees,WindSpeedMPH,WindSpeedGustMPH,Humidity,HourlyPrecipIn,Conditions,Clouds,dailyrainin,SoftwareType,DateUTC
2013-06-08 00:01:00,72.5,70.0,29.90,NNW,342,0.0,-999.0,92,-99.99,,,0.00,weatherlink.com 1.10,2013-06-08 05:01:00,
2013-06-08 00:16:00,72.2,70.0,29.90,NNW,342,0.0,-999.0,92,-99.99,,,0.00,weatherlink.com 1.10,2013-06-08 05:16:00,
2013-06-08 00:31:00,72.0,70.0,29.90,NNW,342,0.0,-999.0,93,-99.99,,,0.00,weatherlink.com 1.10,2013-06-08 05:31:00,
2013-06-08 00:46:00,71.7,70.0,29.90,NNW,342,0.0,-999.0,93,-99.99,,,0.00,weatherlink.com 1.10,2013-06-08 05:46:00,
2013-06-08 01:01:00,71.6,70.0,29.90,NNW,342,0.0,-999.0,93,-99.99,,,0.00,weatherlink.com 1.10,2013-06-08 06:01:00,
2013-06-08 02:01:00,71.6,70.0,29.91,NNW,345,0.0,-999.0,93,-99.99,,,0.00,weatherlink.com 1.10,2013-06-08 07:01:00,
2013-06-08 02:16:00,71.4,69.0,29.91,NNW,345,0.0,-999.0,93,-99.99,,,0.00,weatherlink.com 1.10,2013-06-08 07:16:00,
2013-06-08 02:31:00,71.2,69.0,29.91,NNW,345,0.0,-999.0,93,-99.99,,,0.00,weatherlink.com 1.10,2013-06-08 07:31:00,
2013-06-08 02:46:00,70.9,69.0,29.91,NNW,345,0.0,-999.0,93,-99.99,,,0.00,weatherlink.com 1.10,2013-06-08 07:46:00,
2013-06-08 03:01:00,70.6,69.0,29.91,NNW,345,0.0,-999.0,93,-99.99,,,0.00,weatherlink.com 1.10,2013-06-08 08:01:00,
2013-06-08 03:16:00,70.3,68.0,29.90,NNW,345,0.0,-999.0,93,-99.99,,,0.00,weatherlink.com 1.10,2013-06-08 08:16:00,
2013-06-08 03:46:00,69.8,68.0,29.90,NNW,345,0.0,-999.0,94,-99.99,,,0.00,weatherlink.com 1.10,2013-06-08 08:46:00,
2013-06-08 04:01:00,69.7,68.0,29.89,NNW,345,0.0,-999.0,95,-99.99,,,0.00,weatherlink.com 1.10,2013-06-08 09:01:00,
2013-06-08 04:16:00,69.6,68.0,29.89,NNW,345,0.0,-999.0,95,-99.99,,,0.00,weatherlink.com 1.10,2013-06-08 09:16:00,
2013-06-08 04:31:00,69.6,68.0,29.89,NNW,345,0.0,-999.0,95,-99.99,,,0.00,weatherlink.com 1.10,2013-06-08 09:31:00,
2013-06-08 04:46:00,69.7,68.0,29.89,NNW,345,0.0,-999.0,95,-99.99,,,0.00,weatherlink.com 1.10,2013-06-08 09:46:00,
2013-06-08 05:01:00,69.7,68.0,29.89,NNW,346,0.0,-999.0,95,-99.99,,,0.00,weatherlink.com 1.10,2013-06-08 10:01:00,
2013-06-08 05:16:00,69.7,68.0,29.90,NNW,346,0.0,-999.0,95,-99.99,,,0.00,weatherlink.com 1.10,2013-06-08 10:16:00,
2013-06-08 05:31:00,69.6,68.0,29.90,NNW,346,0.0,-999.0,95,-99.99,,,0.00,weatherlink.com 1.10,2013-06-08 10:31:00,
2013-06-08 05:46:00,69.4,68.0,29.91,NNW,346,0.0,-999.0,95,-99.99,,,0.00,weatherlink.com 1.10,2013-06-08 10:46:00,
2013-06-08 06:01:00,69.2,68.0,29.91,NNW,346,0.0,-999.0,95,-99.99,,,0.00,weatherlink.com 1.10,2013-06-08 11:01:00,
2013-06-08 06:16:00,69.0,68.0,29.91,NNW,346,0.0,-999.0,95,-99.99,,,0.00,weatherlink.com 1.10,2013-06-08 11:16:00,
2013-06-08 06:31:00,69.0,68.0,29.92,NNW,346,0.0,-999.0,95,-99.99,,,0.00,weatherlink.com 1.10,2013-06-08 11:31:00,
2013-06-08 06:46:00,69.2,68.0,29.93,NNW,346,0.0,-999.0,95,-99.99,,,0.00,weatherlink.com 1.10,2013-06-08 11:46:00,
2013-06-08 07:01:00,69.5,68.0,29.93,NNE,17,0.0,-999.0,95,-99.99,,,0.00,weatherlink.com 1.10,2013-06-08 12:01:00,
2013-06-08 07:16:00,70.2,69.0,29.93,NNE,17,0.0,-999.0,95,-99.99,,,0.00,weatherlink.com 1.10,2013-06-08 12:16:00,
2013-06-08 07:31:00,70.8,69.0,29.94,NE,48,0.0,-999.0,95,-99.99,,,0.00,weatherlink.com 1.10,2013-06-08 12:31:00,
2013-06-08 07:46:00,71.4,70.0,29.94,East,99,0.0,-999.0,95,-99.99,,,0.00,weatherlink.com 1.10,2013-06-08 12:46:00,
2013-06-08 08:02:00,72.6,71.0,29.94,ENE,75,1.0,-999.0,93,-99.99,,,0.00,weatherlink.com 1.10,2013-06-08 13:02:00,
2013-06-08 08:16:00,73.7,71.0,29.94,East,92,5.0,-999.0,90,-99.99,,,0.00,weatherlink.com 1.10,2013-06-08 13:16:00,
2013-06-08 08:32:00,75.4,71.0,29.95,East,101,6.0,-999.0,87,-99.99,,,0.00,weatherlink.com 1.10,2013-06-08 13:32:00,
2013-06-08 08:47:00,77.0,72.0,29.95,ENE,74,0.0,-999.0,84,-99.99,,,0.00,weatherlink.com 1.10,2013-06-08 13:47:00,
2013-06-08 09:02:00,78.3,73.0,29.95,ESE,106,2.0,-999.0,83,-99.99,,,0.00,weatherlink.com 1.10,2013-06-08 14:02:00,
2013-06-08 09:17:00,79.9,73.0,29.95,ESE,113,4.0,-999.0,79,-99.99,,,0.00,weatherlink.com 1.10,2013-06-08 14:17:00,
2013-06-08 09:32:00,81.2,74.0,29.95,East,92,1.0,-999.0,79,-99.99,,,0.00,weatherlink.com 1.10,2013-06-08 14:32:00,
2013-06-08 09:47:00,82.3,74.0,29.95,ESE,110,6.0,-999.0,75,-99.99,,,0.00,weatherlink.com 1.10,2013-06-08 14:47:00,
2013-06-08 10:02:00,82.7,74.0,29.95,East,81,0.0,-999.0,76,-99.99,,,0.00,weatherlink.com 1.10,2013-06-08 15:02:00,
2013-06-08 10:17:00,83.4,74.0,29.96,East,84,0.0,-999.0,74,-99.99,,,0.00,weatherlink.com 1.10,2013-06-08 15:17:00,
2013-06-08 10:32:00,84.2,75.0,29.95,ESE,123,9.0,-999.0,74,-99.99,,,0.00,weatherlink.com 1.10,2013-06-08 15:32:00,
2013-06-08 10:47:00,84.8,74.0,29.95,SE,132,5.0,-999.0,71,-99.99,,,0.00,weatherlink.com 1.10,2013-06-08 15:47:00,
2013-06-08 11:02:00,85.7,75.0,29.95,SE,124,0.0,-999.0,71,-99.99,,,0.00,weatherlink.com 1.10,2013-06-08 16:02:00,
2013-06-08 11:17:00,86.4,76.0,29.95,ESE,117,0.0,-999.0,70,-99.99,,,0.00,weatherlink.com 1.10,2013-06-08 16:17:00,
2013-06-08 11:32:00,87.3,75.0,29.95,SSW,206,3.0,-999.0,67,-99.99,,,0.00,weatherlink.com 1.10,2013-06-08 16:32:00,
2013-06-08 11:47:00,87.5,76.0,29.95,WSW,237,0.0,-999.0,68,-99.99,,,0.00,weatherlink.com 1.10,2013-06-08 16:47:00,
2013-06-08 12:02:00,88.5,75.0,29.95,ESE,114,0.0,-999.0,64,-99.99,,,0.00,weatherlink.com 1.10,2013-06-08 17:02:00,
2013-06-08 12:17:00,88.5,74.0,29.95,South,170,1.0,-999.0,63,-99.99,,,0.00,weatherlink.com 1.10,2013-06-08 17:17:00,
2013-06-08 12:32:00,89.2,74.0,29.94,SE,135,0.0,-999.0,62,-99.99,,,0.00,weatherlink.com 1.10,2013-06-08 17:32:00,
2013-06-08 12:47:00,89.3,76.0,29.93,SE,139,0.0,-999.0,65,-99.99,,,0.00,weatherlink.com 1.10,2013-06-08 17:47:00,
2013-06-08 13:02:00,90.5,73.0,29.94,WNW,302,2.0,-999.0,57,-99.99,,,0.00,weatherlink.com 1.10,2013-06-08 18:02:00,
2013-06-08 13:17:00,91.1,74.0,29.93,West,269,1.0,-999.0,57,-99.99,,,0.00,weatherlink.com 1.10,2013-06-08 18:17:00,
2013-06-08 13:32:00,91.2,74.0,29.93,ESE,116,1.0,-999.0,57,-99.99,,,0.00,weatherlink.com 1.10,2013-06-08 18:32:00,
2013-06-08 13:47:00,90.4,74.0,29.93,SE,139,0.0,-999.0,58,-99.99,,,0.00,weatherlink.com 1.10,2013-06-08 18:47:00,
2013-06-08 14:02:00,89.9,75.0,29.93,SSE,153,0.0,-999.0,62,-99.99,,,0.00,weatherlink.com 1.10,2013-06-08 19:02:00,
2013-06-08 14:17:00,90.4,74.0,29.92,WSW,255,0.0,-999.0,59,-99.99,,,0.00,weatherlink.com 1.10,2013-06-08 19:17:00,
2013-06-08 14:32:00,89.5,75.0,29.92,WSW,245,0.0,-999.0,62,-99.99,,,0.00,weatherlink.com 1.10,2013-06-08 19:32:00,
2013-06-08 14:47:00,90.1,74.0,29.91,ESE,119,0.0,-999.0,60,-99.99,,,0.00,weatherlink.com 1.10,2013-06-08 19:47:00,
2013-06-08 15:02:00,90.9,74.0,29.90,SE,126,5.0,-999.0,57,-99.99,,,0.00,weatherlink.com 1.10,2013-06-08 20:02:00,
2013-06-08 15:17:00,91.7,75.0,29.90,SSE,165,0.0,-999.0,58,-99.99,,,0.00,weatherlink.com 1.10,2013-06-08 20:17:00,
2013-06-08 15:32:00,92.1,74.0,29.90,East,95,0.0,-999.0,55,-99.99,,,0.00,weatherlink.com 1.10,2013-06-08 20:32:00,
2013-06-08 15:47:00,91.7,73.0,29.90,SE,138,1.0,-999.0,55,-99.99,,,0.00,weatherlink.com 1.10,2013-06-08 20:47:00,
2013-06-08 16:03:00,92.0,74.0,29.89,South,186,0.0,-999.0,55,-99.99,,,0.00,weatherlink.com 1.10,2013-06-08 21:03:00,
2013-06-08 16:18:00,91.2,75.0,29.89,ESE,107,0.0,-999.0,59,-99.99,,,0.00,weatherlink.com 1.10,2013-06-08 21:18:00,
2013-06-08 16:33:00,90.7,71.0,29.88,ESE,116,0.0,-999.0,53,-99.99,,,0.00,weatherlink.com 1.10,2013-06-08 21:33:00,
2013-06-08 16:48:00,89.4,74.0,29.89,ESE,117,0.0,-999.0,61,-99.99,,,0.00,weatherlink.com 1.10,2013-06-08 21:48:00,
2013-06-08 17:03:00,88.2,75.0,29.89,ESE,117,0.0,-999.0,65,-99.99,,,0.00,weatherlink.com 1.10,2013-06-08 22:03:00,
2013-06-08 17:18:00,87.2,75.0,29.89,ESE,117,0.0,-999.0,67,-99.99,,,0.00,weatherlink.com 1.10,2013-06-08 22:18:00,
2013-06-08 17:33:00,86.1,74.0,29.91,NE,49,0.0,-999.0,67,-99.99,,,0.00,weatherlink.com 1.10,2013-06-08 22:33:00,
2013-06-08 17:48:00,85.0,75.0,29.91,NE,50,0.0,-999.0,71,-99.99,,,0.00,weatherlink.com 1.10,2013-06-08 22:48:00,
2013-06-08 18:03:00,80.9,72.0,29.93,NNW,338,2.0,-999.0,73,-99.99,,,0.00,weatherlink.com 1.10,2013-06-08 23:03:00,
2013-06-08 18:18:00,77.1,70.0,29.91,South,173,1.0,-999.0,79,-99.99,,,0.00,weatherlink.com 1.10,2013-06-08 23:18:00,
2013-06-08 18:33:00,75.9,70.0,29.91,NW,306,0.0,-999.0,81,-99.99,,,0.00,weatherlink.com 1.10,2013-06-08 23:33:00,
2013-06-08 18:48:00,74.9,69.0,29.92,WNW,297,3.0,-999.0,83,-99.99,,,0.00,weatherlink.com 1.10,2013-06-08 23:48:00,
2013-06-08 19:03:00,74.6,70.0,29.93,WNW,296,0.0,-999.0,84,-99.99,,,0.00,weatherlink.com 1.10,2013-06-09 00:03:00,
2013-06-08 19:18:00,74.3,70.0,29.94,ENE,67,0.0,-999.0,85,-99.99,,,0.00,weatherlink.com 1.10,2013-06-09 00:18:00,
2013-06-08 19:33:00,74.2,70.0,29.94,NE,39,0.0,-999.0,85,-99.99,,,0.00,weatherlink.com 1.10,2013-06-09 00:33:00,
2013-06-08 19:48:00,74.4,70.0,29.94,NE,39,0.0,-999.0,86,-99.99,,,0.00,weatherlink.com 1.10,2013-06-09 00:48:00,
2013-06-08 20:03:00,74.4,70.0,29.93,NE,39,0.0,-999.0,87,-99.99,,,0.00,weatherlink.com 1.10,2013-06-09 01:03:00,
2013-06-08 20:18:00,74.1,71.0,29.91,NE,41,3.0,-999.0,89,-99.99,,,0.00,weatherlink.com 1.10,2013-06-09 01:18:00,
2013-06-08 20:33:00,73.3,70.0,29.88,ESE,102,0.0,-999.0,90,-99.99,,,0.01,weatherlink.com 1.10,2013-06-09 01:33:00,
2013-06-08 20:48:00,73.0,70.0,29.89,SE,137,0.0,-999.0,91,-99.99,,,0.02,weatherlink.com 1.10,2013-06-09 01:48:00,
2013-06-08 21:03:00,72.9,70.0,29.89,SE,137,0.0,-999.0,91,-99.99,,,0.02,weatherlink.com 1.10,2013-06-09 02:03:00,
2013-06-08 21:18:00,72.6,70.0,29.89,SE,137,0.0,-999.0,92,-99.99,,,0.02,weatherlink.com 1.10,2013-06-09 02:18:00,
2013-06-08 21:33:00,72.2,70.0,29.90,SE,137,0.0,-999.0,92,-99.99,,,0.02,weatherlink.com 1.10,2013-06-09 02:33:00,
2013-06-08 21:48:00,71.8,70.0,29.92,SE,137,0.0,-999.0,93,-99.99,,,0.02,weatherlink.com 1.10,2013-06-09 02:48:00,
2013-06-08 22:03:00,71.5,69.0,29.93,SE,137,0.0,-999.0,93,-99.99,,,0.02,weatherlink.com 1.10,2013-06-09 03:03:00,
2013-06-08 22:18:00,71.3,70.0,29.94,SE,137,0.0,-999.0,94,-99.99,,,0.02,weatherlink.com 1.10,2013-06-09 03:18:00,
2013-06-08 22:33:00,71.2,69.0,29.95,SE,137,0.0,-999.0,94,-99.99,,,0.02,weatherlink.com 1.10,2013-06-09 03:33:00,
2013-06-08 22:48:00,71.2,70.0,29.96,SE,132,0.0,-999.0,95,-99.99,,,0.02,weatherlink.com 1.10,2013-06-09 03:48:00,
2013-06-08 23:03:00,71.0,70.0,29.97,East,82,0.0,-999.0,95,-99.99,,,0.02,weatherlink.com 1.10,2013-06-09 04:03:00,
2013-06-08 23:18:00,70.8,69.0,29.97,ENE,70,0.0,-999.0,95,-99.99,,,0.02,weatherlink.com 1.10,2013-06-09 04:18:00,
2013-06-08 23:33:00,70.6,69.0,29.96,ENE,69,0.0,-999.0,94,-99.99,,,0.02,weatherlink.com 1.10,2013-06-09 04:33:00,
2013-06-08 23:48:00,70.5,69.0,29.96,ENE,67,0.0,-999.0,94,-99.99,,,0.02,weatherlink.com 1.10,2013-06-09 04:48:00,